CAPE
2298 3369 3815 2619 1899 1622 1408 1836 1742 1716 1556 1787 1862 2095 1881 1617 1234 1232 1110 1174 855 868
3048 3561 2870 2442 1813 1592 1501 1495 1719 2064 1993 2181 1886 1542 1394 1291 1288 1295 1177 1106 1232 834
3163 3359 2623 2310 1943 2190 2309 2066 1972 2109 1945 1788 1503 1349 1501 1437 1145 1279 1247 1051 855 877
3044 2841 2923 2631 2373 2446 2307 2130 1908 1767 1581 1422 1418 1426 1322 1246 975 991 991 883 549 873
1856 1789 1961 1924 1777 1882 1965 1846 1612 1428 1112 988 954 1156 1175 955 788 764 927 805 630 732
1960 1491 1351 1633 1751 1751 1745 1599 962 877 768 537 647 744 1146 992 803 701 671 553 398 656
1657 1361 1399 1536 1517 1258 1029 872 732 679 434 601 635 831 834 605 620 692 342 525 381 472
1230 1176 1278 1147 1025 917 747 619 470 730 513 851 389 570 734 1054 933 580 271 471 516 328
1124 934 1007 880 386 883 872 807 356 541 620 636 218 107 29 399 797 482 471 246 423 185
528 496 321 372 368 897 1003 748 548 488 649 502 0 0 0 184 491 833 415 583 364 481
313 310 339 326 514 979 933 1060 997 895 677 80 0 0 7 125 388 650 543 575 405 497
273 251 219 404 673 983 793 728 842 863 884 80 0 2 37 51 30 94 175 75 147 172
147 179 397 404 826 886 816 931 810 673 586 1 0 0 1 3 4 10 10 26 30 31
133 178 340 580 821 723 913 751 719 748 469 112 7 10 7 1 19 15 17 7 26 10
CIN
-77 -11 -13 -55 -106 -110 -150 -74 -68 -68 -71 -19 -10 -9 -18 -19 -28 -21 -19 -10 -28 -36
-9 -10 -25 -30 -58 -90 -100 -98 -42 -8 -8 -5 -8 -14 -23 -24 -20 -23 -14 -12 -12 -19
-5 -14 -25 -24 -33 -6 -8 -12 -8 -3 -6 -9 -12 -19 -13 -11 -16 -14 -23 -24 -19 -15
-6 -15 -8 -5 -13 -11 -10 -8 -6 -5 -7 -8 -10 -11 -17 -11 -21 -13 -24 -23 -29 -6
-57 -62 -40 -26 -39 -24 -10 -7 -7 -4 -4 -4 -5 -7 -6 -10 -7 -10 -18 -26 -26 -13
-5 -21 -19 -2 -10 -6 -6 -8 -10 -4 -4 -12 -12 -27 -13 -7 -8 -11 -19 -28 -30 -15
-6 -32 -13 -6 -6 -8 -6 -6 -8 -5 -7 -10 -35 -16 -11 -13 -18 -11 -24 -26 -35 -26
-33 -25 -4 -4 -5 -7 -7 -7 -5 -15 -52 -51 -20 -16 -39 -3 -6 -22 -41 -17 -27 -22
-4 -7 -4 -6 -30 -7 -7 -24 -65 -57 -46 -37 -21 -28 -52 -35 -9 -10 -10 -31 -21 -21
-40 -68 -86 -35 -19 -4 -29 -58 -49 -49 -45 -26 0 0 0 -32 -13 -6 -15 -7 -35 -18
-88 -69 -50 -35 -13 -25 -27 -25 -14 -20 -23 -80 0 0 -123 -42 -8 -1 -11 -4 -4 -14
-41 -59 -75 -28 -23 -22 -29 -19 -12 -8 -2 -61 0 -29 -65 -45 -62 -22 -3 -19 -19 -24
-81 -56 -32 -44 -29 -13 -18 -7 -11 -9 -6 -16 0 0 -8 0 -1 -21 -23 -15 -16 -29
-96 -106 -50 -39 -20 -19 -10 -13 -8 -1 -4 -23 -52 -38 -33 -1 -1 -2 -3 -5 -2 -15
Wind_Speed
31 34 37 37 36 33 31 28 28 27 31 31 31 32 33 31 28 29 31 30 30 26
31 32 36 37 33 30 28 26 29 30 30 31 31 30 33 27 28 30 30 27 29 25
30 34 34 32 30 28 27 32 32 30 30 28 28 32 28 24 24 28 26 26 22 17
32 35 33 31 28 33 32 31 30 28 28 26 29 27 25 16 26 25 27 23 23 11
31 34 34 30 28 29 28 28 28 28 26 26 25 24 21 21 21 24 22 22 17 12
34 32 27 25 24 25 25 25 26 25 22 21 22 21 20 22 18 20 20 17 15 12
27 25 24 23 23 25 26 27 27 24 21 23 24 21 19 19 17 20 23 14 11 8
21 20 21 21 24 26 26 24 24 26 27 26 25 19 19 19 23 23 20 8 13 15
18 20 20 21 24 20 18 19 20 19 20 21 20 17 nan 18 21 19 12 5 8 13
18 20 20 21 16 14 17 15 17 16 18 19 nan nan nan 17 18 15 7 6 4 9
22 22 19 14 9 16 15 16 16 14 18 nan nan nan nan 18 12 9 11 12 12 12
19 19 14 12 15 17 17 17 15 12 17 nan nan nan nan nan nan nan 11 nan 15 14
17 16 16 17 17 17 15 16 12 13 17 nan nan nan nan nan nan nan nan nan nan nan
14 15 18 19 16 12 9 15 12 16 15 13 nan nan nan nan nan nan nan nan nan nan
Wind_Direction
283 275 279 278 281 285 288 293 293 292 293 300 301 300 298 299 304 309 304 306 301 294
276 276 279 280 288 293 296 292 292 299 301 299 300 302 297 301 302 300 301 303 300 299
273 275 282 288 298 301 293 296 299 298 296 300 302 300 302 301 301 302 298 295 300 301
271 275 282 285 285 288 292 290 294 294 295 297 296 292 296 288 306 302 300 299 312 300
270 272 275 279 282 283 291 297 299 294 291 295 295 293 295 301 302 300 306 311 319 309
270 273 273 275 281 284 289 291 292 292 293 291 294 300 298 301 294 304 308 302 314 289
271 270 275 279 282 289 290 287 287 290 290 284 278 282 296 295 301 310 307 266 300 256
265 269 275 281 292 295 292 292 294 282 273 266 257 254 263 279 295 297 310 309 279 220
282 276 280 289 296 293 293 277 269 272 269 262 262 268 nan 281 301 309 308 299 246 236
273 267 273 283 284 284 273 285 282 272 272 270 nan nan nan 271 287 285 276 270 223 212
268 273 285 288 274 274 277 284 283 272 276 nan nan nan nan 284 275 254 224 223 205 234
277 289 294 292 287 279 280 292 282 269 278 nan nan nan nan nan nan nan 221 nan 204 230
298 310 294 292 285 279 282 277 270 267 265 nan nan nan nan nan nan nan nan nan nan nan
299 287 288 289 281 287 280 267 258 260 267 274 nan nan nan nan nan nan nan nan nan nan